Weather Roundup
Issued by NWS Springfield, MO

Home | Current Version | Previous Version | Text Only | Print | Product List | Glossary On
Versions: 1 2 3 4 5 6 7 8 9 10 11 12 13 14 15 16 17 18 19 20 21 22 23 24 25 26 27 28 29 30 31 32 33 34 35 36 37 38 39 40 41 42 43 44 45 46 47 48 49 50
000
NZUS99 KSGF 201857
HRRSGF

HOURLY WEATHER
NATIONAL WEATHER SERVICE SPRINGFIELD MO
100 PM CST SAT JAN 20 2018

......SGF CWA......

CITY           SKY/WX    TMP DP  RH WIND       PRES   REMARKS
SPRINGFIELD    MOSUNNY   62  48  60 S14       29.90F
JOPLIN         MOSUNNY   61  48  62 S17       29.87F
WEST PLAINS    CLOUDY    56  44  64 S10       29.99F
ROLLA          CLOUDY    55  43  63 S14G26    29.95F

......SURROUNDING SGF CWA......

CITY           SKY/WX    TMP DP  RH WIND       PRES   REMARKS
CHANUTE        CLOUDY    54  46  74 S17       29.85F
PARSONS        CLOUDY    56  48  74 S17G24    29.85F
COFFEYVILLE    PTSUNNY   60  48  64 S15G23    29.84F
EMPORIA        CLOUDY    52  43  71 S13G22    29.81F
SILOAM SPRINGS MOSUNNY   61  46  59 S22G28    29.92F
HARRISON AR    MOSUNNY   58  45  62 S16       29.97F

......KANSAS AND MISSOURI......

CITY           SKY/WX    TMP DP  RH WIND       PRES   REMARKS
KANSAS CTY INT CLOUDY    51  43  74 SW13      29.86F
SEDALIA        CLOUDY    55  47  74 SW12      29.91F
ST JOSEPH      CLOUDY    52  45  77 S9        29.86F
ST LOUIS       CLOUDY    55  43  63 SW3       29.98F
WICHITA        SUNNY     59  44  57 S21       29.77F
TOPEKA         CLOUDY    51  45  79 S7        29.83F
OLATHE         CLOUDY    50  44  80 S7        29.86F

......TENNESSEE......

CITY           SKY/WX    TMP DP  RH WIND       PRES   REMARKS
MEMPHIS        NOT AVBL
NASHVILLE      PTSUNNY   61  32  33 S10       30.17F

......ARKANSAS.......

CITY           SKY/WX    TMP DP  RH WIND       PRES   REMARKS
FAYETTEVILLE   MOSUNNY   59  47  64 S22G31    29.94F
FT SMITH       CLOUDY    65  50  58 SW18G26   29.96F
LITTLE ROCK    CLOUDY    55  43  63 SE7       30.08F

......OKLAHOMA.......

CITY           SKY/WX    TMP DP  RH WIND       PRES   REMARKS
TULSA          MOSUNNY   65  48  54 S16G24    29.82F
PONCA CITY     SUNNY     62  44  51 S15G23    29.80F
MCALESTER      MOSUNNY   65  51  60 S15G30    29.90F
OKLAHOMA CITY  MOSUNNY   62  42  47 S17G28    29.81F

......IOWA............

CITY           SKY/WX    TMP DP  RH WIND       PRES   REMARKS
DES MOINES     NOT AVBL
QUAD CITIES    FAIR      47  37  68 W10       29.90F

......ILLINOIS........

CITY           SKY/WX    TMP DP  RH WIND       PRES   REMARKS
QUINCY         NOT AVBL
CHICAGO        PTSUNNY   44  31  60 SW9       29.91F




USA.gov is the U.S. government's official web portal to all federal, state and local government web resources and services.